This is the latest recevied weather packets stored in our database for station/object p43g-13. If no packets are shown the sender has not sent any weather packets the latest 10 day(s).
| Time | Temp. | Humidity | Pressure | Rain* | Wind** | Luminosity | Snow |
|---|---|---|---|---|---|---|---|
| 1787616211 | 28.89° C | 85% | 1011.5 hPa | 0 mm | - | 0 W/m² | - |
| 1787615911 | 28.89° C | 85% | 1011.2 hPa | 0 mm | - | 0 W/m² | - |
| 1787615610 | 29.44° C | 85% | 1011.2 hPa | 0 mm | - | 0 W/m² | - |
| 1787615311 | 29.44° C | 84% | 1011.1 hPa | 0 mm | - | 0 W/m² | - |
| 1787615011 | 29.44° C | 84% | 1010.9 hPa | 0 mm | - | 0 W/m² | - |
| 1787614711 | 29.44° C | 84% | 1011 hPa | 0 mm | - | 0 W/m² | - |
| 1787614411 | 29.44° C | 83% | 1011.1 hPa | 0 mm | - | 0 W/m² | - |
| 1787614111 | 29.44° C | 83% | 1011.1 hPa | 0 mm | - | 0 W/m² | - |
| 1787613811 | 29.44° C | 83% | 1011 hPa | 0 mm | - | 0 W/m² | - |
| 1787613511 | 29.44° C | 83% | 1010.7 hPa | 0 mm | - | 0 W/m² | - |
| 1787613212 | 29.44° C | 83% | 1010.8 hPa | 0 mm | - | 0 W/m² | - |
| 1787612912 | 29.44° C | 83% | 1010.6 hPa | 0 mm | - | 0 W/m² | - |
| 1787612611 | 29.44° C | 82% | 1010.6 hPa | 0 mm | - | 0 W/m² | - |
| 1787612311 | 29.44° C | 82% | 1010.8 hPa | 0 mm | - | 2 W/m² | - |
| 1787612011 | 29.44° C | 82% | 1010.4 hPa | 0 mm | - | 5 W/m² | - |
| 1787611711 | 29.44° C | 82% | 1010.5 hPa | 0 mm | - | 8 W/m² | - |
| 1787611411 | 29.44° C | 82% | 1010.4 hPa | 0 mm | - | 12 W/m² | - |
| 1787611111 | 29.44° C | 82% | 1010.1 hPa | 0 mm | - | 17 W/m² | - |
| 1787610811 | 29.44° C | 82% | 1010.2 hPa | 0 mm | - | 22 W/m² | - |
| 1787610511 | 29.44° C | 83% | 1010.1 hPa | 0 mm | - | 28 W/m² | - |
| 1787610211 | 29.44° C | 83% | 1010 hPa | 0 mm | - | 35 W/m² | - |
| 1787609911 | 30° C | 83% | 1010.2 hPa | 0 mm | - | 42 W/m² | - |
| 1787609611 | 30° C | 83% | 1009.9 hPa | 0 mm | - | 50 W/m² | - |
| 1787609311 | 30° C | 83% | 1009.7 hPa | 0 mm | - | 56 W/m² | - |
| 1787609011 | 30° C | 83% | 1009.7 hPa | 0 mm | - | 68 W/m² | - |
* Rain latest hour (hover to see other rain measurements)
** Current wind speed in m/s (hover to see current wind gust speed)